Wind_Speed
18 19 17 19 18 15 12 11 11 10 9 9 8 9 7 5 6 6 7 7 6 6 7 7 7 8 9 9 10 10 10 10 10 10 9 9 10 12 12 10 9 7 8
21 21 19 20 16 14 13 11 10 10 8 6 5 3 3 4 5 6 7 7 7 7 8 8 8 8 8 9 9 10 11 11 11 11 10 10 9 9 11 10 9 8 8
25 23 21 19 15 14 13 10 9 7 5 4 2 2 3 4 5 6 7 8 8 8 7 7 8 8 8 9 9 10 11 10 10 9 5 4 7 9 14 14 11 11 10
26 23 22 19 16 14 12 10 7 5 4 3 3 3 4 5 6 7 8 8 8 8 9 9 9 9 10 10 10 10 10 9 8 7 6 6 4 12 13 14 13 12 13
23 22 21 19 16 14 11 9 6 5 5 4 4 4 5 6 7 8 8 9 9 10 10 11 11 11 11 11 11 10 10 9 7 8 8 8 4 9 12 11 12 12 13
22 21 21 19 16 13 10 7 6 6 5 5 5 5 6 6 7 8 9 10 10 11 12 12 12 12 11 11 12 12 11 10 7 11 8 9 11 9 11 11 11 12 11
23 22 21 18 15 13 9 7 7 6 6 5 6 6 6 8 8 9 10 11 12 12 13 13 12 13 13 13 13 12 11 11 12 11 10 11 13 14 10 10 7 8 9
21 25 22 18 14 12 9 7 7 6 6 6 6 7 8 9 9 10 11 12 12 13 13 14 14 15 15 14 13 13 13 10 10 11 6 9 8 8 9 10 10 9 8
20 24 22 19 15 11 9 8 7 7 7 6 7 8 9 9 10 10 11 12 13 13 14 14 15 15 15 15 14 14 13 14 14 10 8 7 7 11 12 12 13 13 11
22 21 22 18 14 11 10 9 8 8 7 7 7 8 9 9 10 10 11 12 13 14 14 15 16 15 15 16 15 13 12 13 10 5 8 7 10 9 10 11 11 10 11
22 21 19 18 14 12 11 10 8 8 8 8 8 7 7 9 10 10 11 12 12 13 13 13 15 17 18 16 13 11 9 11 6 5 9 8 11 10 12 12 13 13 13
26 23 18 15 14 13 11 10 9 8 9 8 8 7 8 7 7 8 10 10 11 12 13 13 17 18 17 16 14 13 10 9 8 8 11 8 9 8 10 14 16 13 10
27 24 23 19 15 12 11 9 8 8 8 7 7 6 5 6 7 9 10 11 12 12 12 14 15 16 17 17 15 13 12 9 5 7 11 9 4 6 12 15 15 13 10
27 25 22 19 16 13 10 7 7 7 7 7 7 6 5 5 5 7 8 9 10 10 11 13 14 15 16 15 14 12 11 9 5 7 11 12 9 9 12 13 13 10 9
27 25 21 19 16 13 12 8 7 7 7 6 5 5 4 3 4 5 6 8 9 10 11 12 13 14 14 14 13 13 11 9 7 5 9 11 11 11 13 12 13 14 12
26 24 23 20 16 15 14 11 8 8 6 6 5 3 2 2 3 4 6 6 8 9 10 12 14 13 13 12 11 11 7 6 5 6 9 11 13 14 14 12 14 14 14
27 24 21 20 18 15 14 11 10 7 6 5 4 3 1 2 3 4 4 6 7 8 9 11 12 12 11 11 9 9 8 5 3 4 6 10 12 13 14 14 15 15 14
30 27 23 21 18 15 13 11 9 7 5 4 3 2 1 1 3 3 3 5 6 7 9 11 12 13 12 13 11 9 8 6 4 4 7 12 9 9 11 13 14 16 16
31 26 25 22 19 16 14 12 10 8 6 4 3 2 2 1 2 2 2 4 5 7 10 12 13 13 13 14 13 9 10 9 6 4 5 13 10 12 10 12 15 15 19
27 26 25 23 20 17 15 12 10 9 7 5 4 4 2 2 1 1 2 3 5 7 9 11 13 14 13 14 13 13 6 10 10 8 13 16 12 13 13 16 20 17 20
33 29 28 25 21 18 14 12 10 9 8 6 5 4 4 3 2 1 1 3 5 7 11 13 13 13 13 14 14 12 8 10 9 15 17 18 14 15 16 18 20 21 22
37 32 29 27 25 21 17 11 7 9 8 6 4 5 6 4 3 1 1 2 5 7 9 11 13 13 13 14 16 11 8 2 6 13 14 13 18 18 18 21 19 20 21
33 30 29 24 18 17 16 10 6 12 6 6 6 7 7 5 4 2 1 2 5 7 10 11 12 13 13 12 12 11 6 6 20 5 6 7 14 15 23 24 25 25 22
27 27 25 19 8 5 10 9 13 9 8 8 7 7 7 5 4 3 1 2 5 7 9 10 11 11 11 11 9 8 7 9 7 12 15 20 12 19 20 22 23 25 23
22 21 21 18 12 13 18 16 13 10 9 9 10 10 7 6 4 3 0 3 5 7 8 9 9 10 10 11 11 12 12 12 9 15 24 27 25 23 22 24 25 22 21
16 21 23 22 24 28 24 18 16 18 15 12 9 8 7 7 6 2 1 4 5 7 8 9 9 10 10 11 11 12 12 13 17 17 23 27 27 28 27 26 26 18 19
Wind_Direction
175 168 148 145 137 146 142 137 125 115 111 115 110 103 91 46 14 15 22 24 18 10 358 351 341 333 330 328 325 320 316 314 313 314 326 343 353 347 342 348 347 337 325
167 159 151 150 151 148 146 139 134 130 120 113 109 74 35 20 25 26 31 28 18 10 1 353 347 341 338 333 328 324 322 324 321 320 329 351 356 322 310 317 323 329 321
160 155 153 154 151 147 145 141 134 132 133 133 107 57 47 38 42 40 32 28 25 21 17 12 6 1 356 350 345 342 341 340 337 339 359 31 8 299 301 306 300 302 303
158 155 156 156 152 149 148 138 135 133 131 120 104 84 70 60 47 39 38 36 33 31 27 24 18 12 6 2 357 354 354 355 358 359 347 313 271 287 303 311 304 295 292
151 157 155 153 153 152 145 139 133 127 121 110 95 84 76 62 51 47 44 42 41 39 33 28 23 20 15 14 13 12 14 16 24 18 11 349 334 314 319 328 323 311 301
153 158 153 153 151 151 146 141 134 128 120 112 102 89 75 66 61 56 55 52 46 40 34 30 27 25 24 24 25 25 27 35 34 34 19 359 3 4 13 7 5 1 348
170 157 152 150 159 150 149 143 136 127 118 110 98 86 77 70 66 63 57 51 47 43 38 34 32 33 34 32 33 35 43 54 51 29 24 9 28 34 21 357 354 11 2
169 157 151 155 160 155 152 146 135 125 115 107 98 89 81 76 72 64 57 52 48 44 40 37 35 36 36 36 37 42 49 61 52 57 8 7 45 35 352 352 354 354 334
169 156 155 162 162 161 154 143 133 121 110 104 100 94 86 81 71 62 57 52 49 45 43 40 39 38 38 37 40 43 52 53 43 35 11 23 34 21 10 14 16 11 351
163 160 163 165 166 164 157 144 133 121 111 107 104 100 97 84 73 65 56 50 48 46 45 43 41 39 43 39 39 44 51 55 42 345 2 22 41 19 3 8 6 18 7
164 169 167 169 170 168 158 144 134 123 114 112 108 104 102 80 70 58 52 49 47 47 45 47 47 42 37 36 36 41 48 61 25 350 0 24 47 15 359 13 16 12 16
168 173 169 170 173 164 156 148 138 131 125 125 116 104 82 75 57 58 53 48 47 48 48 48 46 40 37 36 33 37 46 69 30 349 4 29 50 15 356 3 358 5 33
171 167 166 174 175 164 160 148 141 129 128 126 121 112 98 73 56 42 40 42 42 44 44 44 41 36 32 31 31 35 39 55 23 346 3 8 30 354 347 350 357 7 24
170 169 176 176 173 166 154 147 147 146 142 139 131 118 93 74 59 47 41 41 39 43 43 42 36 34 29 30 28 33 36 43 26 352 354 356 355 349 350 355 6 24 28
171 167 178 177 175 165 145 176 166 155 156 144 140 127 118 78 54 46 44 40 40 41 43 38 32 31 27 28 25 25 31 29 42 347 340 358 359 354 354 0 4 1 358
172 184 186 178 176 171 169 177 172 174 161 154 147 138 101 69 45 39 42 42 40 41 37 33 28 28 25 23 23 15 28 28 30 354 348 347 349 357 358 357 358 356 354
180 190 186 180 181 180 173 176 181 176 172 168 160 160 120 43 38 40 40 37 39 40 34 28 29 22 23 19 17 1 4 27 29 321 353 352 341 340 342 352 356 354 353
186 197 189 187 185 183 180 184 181 181 184 182 186 177 207 16 13 31 35 37 36 31 27 20 20 19 15 13 6 7 359 351 355 313 358 341 333 331 330 342 350 351 359
186 196 188 188 189 186 183 186 184 186 193 200 208 227 252 338 341 4 33 35 34 27 22 18 16 11 8 10 7 10 352 341 337 332 319 339 331 332 332 341 342 343 349
183 196 189 185 186 187 188 189 189 194 203 206 218 247 247 274 281 354 23 40 30 22 20 16 13 10 8 7 6 2 360 7 1 16 345 356 332 335 333 335 340 336 340
183 190 184 180 184 186 186 190 199 205 206 217 237 253 259 258 235 191 43 33 24 17 14 9 10 10 6 9 10 26 31 2 3 350 342 331 343 336 334 335 328 325 329
183 189 179 182 187 183 175 172 199 217 209 227 230 242 249 249 235 200 116 27 26 15 13 7 6 11 16 9 11 12 6 25 326 334 353 343 348 344 340 336 335 328 324
185 182 183 191 192 191 184 171 183 225 224 225 219 237 233 237 220 180 153 37 11 5 10 7 7 6 9 14 12 19 354 336 337 304 356 330 330 335 328 331 330 331 326
192 192 194 185 191 223 237 207 211 234 236 239 236 224 216 219 204 183 176 23 1 2 6 5 3 1 359 1 13 351 338 318 321 320 316 330 323 313 324 316 321 329 329
172 177 189 202 242 213 213 210 206 203 221 234 228 226 198 193 190 197 253 359 354 355 357 355 354 353 350 350 347 343 341 332 329 296 298 314 317 322 327 324 328 330 330
177 180 191 194 207 203 202 196 196 213 214 218 216 212 204 188 191 206 325 334 345 342 341 346 344 345 341 338 336 333 326 319 312 308 300 306 312 320 320 323 329 329 327
Height
1518 1522 1524 1526 1528 1530 1532 1534 1535 1536 1537 1537 1537 1538 1539 1539 1539 1538 1538 1538 1538 1537 1537 1536 1535 1535 1534 1533 1533 1532 1532 1532 1532 1531 1531 1531 1531 1531 1530 1529 1529 1529 1528
1515 1520 1524 1526 1529 1530 1533 1534 1535 1536 1537 1538 1539 1539 1539 1539 1539 1539 1538 1538 1538 1537 1537 1536 1535 1534 1533 1533 1532 1531 1530 1530 1530 1530 1530 1530 1530 1531 1530 1529 1528 1528 1528
1515 1519 1523 1526 1529 1531 1533 1534 1536 1537 1538 1539 1539 1539 1540 1539 1539 1539 1539 1538 1538 1537 1536 1535 1535 1534 1533 1532 1531 1531 1530 1529 1529 1529 1529 1529 1529 1528 1527 1527 1526 1526 1526
1515 1519 1523 1526 1529 1532 1533 1535 1536 1537 1538 1539 1539 1539 1540 1540 1540 1540 1539 1539 1538 1537 1537 1536 1535 1534 1533 1532 1531 1530 1529 1529 1528 1528 1528 1527 1529 1525 1525 1524 1524 1523 1523
1516 1519 1523 1527 1530 1532 1534 1536 1537 1538 1538 1539 1540 1540 1540 1540 1540 1540 1540 1539 1539 1538 1537 1536 1535 1534 1533 1532 1531 1529 1529 1528 1528 1527 1527 1527 1526 1525 1524 1523 1522 1521 1521
1517 1520 1524 1528 1530 1532 1535 1536 1537 1538 1539 1539 1540 1540 1540 1540 1540 1540 1540 1540 1539 1539 1538 1537 1536 1535 1533 1532 1531 1530 1529 1528 1528 1528 1528 1526 1526 1525 1524 1524 1522 1521 1519
1516 1521 1524 1528 1531 1533 1535 1537 1538 1539 1539 1540 1540 1541 1541 1541 1541 1541 1541 1541 1540 1539 1538 1538 1536 1535 1534 1532 1531 1530 1529 1529 1528 1528 1528 1527 1526 1526 1526 1524 1522 1521 1520
1517 1521 1525 1529 1532 1534 1536 1537 1538 1539 1540 1540 1541 1541 1542 1542 1542 1542 1542 1541 1541 1540 1539 1538 1537 1536 1534 1533 1532 1531 1530 1529 1529 1530 1528 1528 1527 1527 1525 1523 1522 1521 1520
1519 1521 1525 1528 1532 1534 1536 1538 1539 1540 1540 1541 1541 1542 1542 1543 1543 1543 1543 1542 1542 1541 1540 1539 1538 1536 1535 1534 1532 1532 1531 1531 1530 1530 1529 1528 1528 1527 1525 1523 1522 1521 1519
1519 1523 1525 1529 1532 1534 1536 1538 1539 1540 1541 1542 1542 1543 1543 1543 1544 1544 1544 1543 1542 1542 1541 1540 1538 1537 1536 1534 1533 1533 1532 1532 1532 1530 1530 1528 1527 1526 1525 1523 1522 1521 1520
1521 1524 1526 1529 1531 1534 1536 1538 1539 1540 1541 1542 1543 1543 1543 1544 1545 1545 1544 1544 1543 1542 1542 1541 1540 1538 1536 1535 1534 1533 1533 1533 1533 1531 1530 1529 1528 1527 1525 1523 1521 1520 1519
1519 1524 1527 1529 1531 1534 1536 1538 1539 1540 1542 1543 1543 1544 1544 1545 1545 1545 1545 1545 1544 1543 1543 1541 1540 1539 1538 1536 1535 1534 1533 1533 1534 1532 1532 1530 1530 1528 1525 1524 1522 1521 1520
1518 1523 1526 1529 1531 1534 1536 1538 1540 1541 1542 1543 1544 1545 1545 1545 1545 1545 1545 1545 1544 1544 1543 1542 1541 1540 1538 1537 1535 1534 1534 1534 1534 1533 1532 1531 1530 1529 1526 1524 1522 1521 1520
1517 1521 1525 1529 1532 1534 1537 1538 1540 1541 1542 1544 1545 1546 1546 1546 1546 1546 1546 1546 1545 1544 1543 1542 1542 1540 1539 1538 1537 1535 1534 1534 1535 1533 1532 1532 1530 1529 1527 1525 1523 1521 1521
1517 1519 1524 1528 1531 1534 1537 1539 1540 1542 1543 1545 1546 1546 1546 1547 1547 1546 1546 1546 1546 1545 1544 1543 1542 1541 1539 1538 1537 1536 1535 1534 1534 1532 1532 1531 1530 1529 1528 1526 1524 1522 1520
1514 1518 1523 1527 1531 1534 1536 1539 1541 1542 1544 1545 1546 1547 1547 1547 1547 1547 1546 1546 1546 1545 1545 1544 1542 1541 1540 1539 1537 1536 1535 1535 1535 1533 1531 1530 1530 1529 1527 1526 1525 1523 1521
1513 1518 1522 1526 1530 1533 1536 1539 1541 1542 1543 1544 1546 1546 1546 1547 1547 1547 1546 1546 1546 1545 1544 1544 1542 1541 1540 1538 1537 1536 1535 1535 1534 1533 1532 1530 1529 1528 1527 1526 1525 1523 1521
1512 1516 1521 1524 1529 1532 1535 1538 1540 1542 1543 1544 1545 1545 1546 1546 1547 1546 1545 1545 1545 1545 1544 1543 1541 1540 1539 1538 1537 1535 1534 1534 1533 1532 1532 1530 1529 1528 1527 1526 1524 1523 1520
1509 1515 1518 1522 1527 1530 1534 1537 1539 1541 1542 1544 1545 1545 1545 1546 1546 1546 1545 1544 1544 1544 1543 1542 1541 1540 1538 1537 1535 1534 1533 1533 1532 1531 1530 1529 1527 1527 1526 1525 1523 1521 1519
1508 1512 1517 1522 1525 1529 1532 1535 1538 1541 1541 1543 1543 1544 1546 1545 1546 1545 1545 1545 1544 1543 1543 1542 1541 1539 1537 1536 1535 1533 1532 1532 1531 1531 1530 1528 1526 1525 1524 1523 1521 1519 1517
1504 1509 1515 1520 1524 1527 1531 1534 1538 1539 1540 1541 1541 1544 1545 1544 1544 1544 1544 1544 1544 1543 1542 1541 1540 1538 1537 1536 1533 1533 1531 1531 1531 1529 1528 1527 1525 1524 1522 1520 1518 1517 1515
1498 1507 1511 1517 1520 1523 1528 1532 1536 1540 1539 1538 1540 1542 1544 1544 1544 1542 1542 1543 1543 1543 1541 1541 1540 1538 1537 1535 1533 1532 1531 1531 1530 1529 1528 1527 1525 1523 1522 1520 1517 1515 1512
1496 1502 1509 1515 1519 1523 1526 1528 1530 1541 1537 1538 1537 1539 1542 1543 1543 1541 1542 1541 1542 1542 1540 1540 1539 1537 1536 1535 1534 1534 1533 1532 1528 1527 1526 1525 1523 1521 1520 1517 1514 1512 1510
1493 1501 1508 1513 1518 1517 1526 1526 1531 1535 1535 1538 1537 1539 1539 1540 1541 1539 1540 1539 1541 1541 1540 1539 1538 1536 1536 1534 1534 1533 1533 1533 1530 1526 1524 1523 1522 1521 1518 1515 1513 1510 1507
1492 1497 1505 1508 1513 1512 1518 1524 1530 1532 1533 1538 1538 1540 1538 1537 1538 1539 1538 1538 1539 1539 1539 1538 1536 1535 1535 1534 1532 1531 1530 1529 1529 1528 1522 1518 1518 1516 1514 1512 1510 1507 1504
1488 1494 1502 1503 1509 1513 1519 1523 1525 1529 1530 1534 1536 1538 1537 1535 1536 1537 1536 1538 1537 1538 1537 1535 1535 1533 1533 1532 1530 1529 1528 1526 1525 1524 1520 1516 1513 1510 1508 1507 1505 1503 1501